XRISM

Satellite information

Favourite Embed

Satellite Type and Status

PAYLOADIN ORBIT

Key statistics

Satellite XRISM at a glance.

Uptime

615

Days in orbit

Revolutions

≈ 15.1

Per day

Orbit

LEO

Low Earth Orbit

Inclination

31.0

Latest

Satellite identification and parameters

Extended collection of information and parameters for XRISM.

Object identification

Identified? True

Debris? False

Object name: XRISM

International designator: 2023-137A

Object number (NORAD): 57800

Object ID (CCSDS): 57800

Country: JAPAN (JPN)

Current information (Y/N): Y

RCS size: LARGE

Orbital parameters

Period: 95.504 minutes

Inclination: 31.0028 deg

SMA: 6921.079 km

Apoapsis: 548.803 km

Periapsis: 537.085 km

RAAN: 63.0713 deg

Eccentricy: 0.0008465

Argument of periapsis: 259.7834 deg

Mean anomaly: 100.1849 deg

Mean motion: 15.07794139 rev/day

Mean motion (dot): 0.00005396 rev/day2

B* drag term: 0.00033814 1/REarth

Two-line elements (TLE)

Creation date: May 12, 2025, 10:46 p.m.

Reference frame: TEME

Reference center: EARTH

Epoch: May 12, 2025, 9:33 p.m. UTC

TLE line 0: 0 XRISM

TLE line 1: 1 57800U 23137A 25132.89852568 .00005396 00000-0 33814-3 0 9995

TLE line 2: 2 57800 31.0028 63.0713 0008465 259.7834 100.1849 15.07794139 92388

Live tracking on map

Real-time ground track for satellite XRISM.

In-orbit conjunctions

There are no conjunctions computed for XRISM, at the moment. Check back to stay up to date, as we update our databases every day.

Go to all conjunctions

Associated space launch

X-Ray Imaging and Spectroscopy Mission (XRISM), formerly the X-Ray Astronomy Recovery Mission (XARM), is a replacement for the Hitomi satellite that malfunctioned few weeks after the launch. Smart Lander for Investigating Moon (SLIM) is a lunar probe that will target a landing on a small crater in Mare Nectaris, an area located near the moon's equator on the side facing Earth.

XRISM was lifted into orbit during the mission ‘H-IIA 202 | XRISM & SLIM’, on board a H-IIA space rocket.

The launch took place on Sept. 6, 2023, 11:42 p.m. from Yoshinobu Launch Complex LP-1.

For more information about the launch, click the button.

Launch to space H-IIA 202 | XRISM & SLIM
H-IIA 202 | XRISM & SLIM

Agency: Japan Aerospace Exploration Agency

Status: Launch Successful

Launch date: Sept. 6, 2023, 11:42 p.m. UTC

Rocket: H-IIA

Launch pad: Yoshinobu Launch Complex LP-1

Location: Tanegashima Space Center, Japan

...

Latest news about this satellite

News about space launch
NASA, JAXA XRISM Mission Looks Deeply Into ‘Hidden’ Stellar System

The Japan-led XRISM (X-ray Imaging and Spectroscopy Mission) observatory has captured the most detailed portrait yet of gases flowing within Cygnus X-3, one of the most studied sources in the X-ray sky. Cygnus X-3 is a binary that pairs a rare type of hig...

News about space launch
One year into mission, XRISM reveals movements of cosmic material around supernova remnant and black hole

In September 2023, the joint Japan Aerospace Exploration Agency (JAXA), European Space Agency (ESA), and NASA X-Ray Imaging and Spectroscopy Mission (XRISM) telescope launched into low-Earth orbit atop a Japanese H-IIA rocket. Since then, the X-ray telesc...

News about space launch
XRISM unveils black hole and supernova remnant surroundings

XRISM revealed the structure, motion and temperature of the material around a supermassive black hole and in a supernova remnant in unprecedented detail. Astronomers presented the first scientific results of the new X-ray telescope today, less than a year...


Newsletter sign-up

Weekly statistics, charts and insights to help you stay on top of the space industry.